Theta_e
311 315 317 321 323 316 298 302 313 305 308 313 313 316 310 308 311 309 308 309 309 309 310 310 311 311 310 309 308 309 309 311 309 307 305 305 309 312 312 327 324 314 314 313
311 315 318 320 321 307 301 306 311 308 308 315 316 310 309 310 311 309 309 310 310 309 310 311 310 310 305 307 309 310 308 313 315 309 307 306 307 309 311 311 311 314 316 313
309 313 317 318 319 316 302 305 307 312 308 309 311 311 311 310 308 309 309 309 309 310 310 310 309 308 306 306 308 305 307 310 322 319 321 312 313 308 307 316 317 313 312 311
308 312 315 317 318 305 309 306 309 311 310 312 310 311 311 310 310 308 309 310 310 310 310 309 309 308 307 307 306 307 310 316 310 309 307 306 307 308 306 307 313 311 311 310
308 312 314 315 318 305 305 307 311 309 308 307 310 309 311 310 310 309 310 311 310 310 311 310 310 309 309 310 307 309 306 312 309 308 308 305 307 307 307 307 308 308 308 307
308 311 314 315 317 305 304 307 308 309 310 309 313 313 310 310 310 308 310 310 310 310 310 309 309 308 309 309 310 310 309 309 309 310 306 306 309 308 308 308 308 309 309 310
307 310 313 315 316 310 305 306 309 312 313 313 312 311 311 309 309 310 308 309 311 306 305 306 306 307 306 306 306 307 308 308 309 310 305 313 309 305 307 309 309 309 308 307
306 308 311 314 316 306 305 306 309 312 314 311 311 310 309 308 308 309 308 307 308 305 307 310 317 312 309 307 305 305 306 307 309 315 309 309 306 304 305 307 308 307 307 305
305 308 310 314 315 305 305 306 309 311 311 312 312 311 311 311 310 309 306 305 304 305 310 317 326 314 315 308 307 303 303 305 309 307 313 316 308 305 304 305 308 306 305 304
304 307 310 312 313 304 305 308 309 310 309 307 308 310 311 308 309 312 305 304 304 304 315 321 314 312 307 309 309 306 306 306 315 309 310 307 305 303 304 307 311 305 304 304
306 310 310 311 309 304 304 305 308 309 308 305 307 308 308 308 309 314 306 308 307 310 319 317 311 311 309 309 308 306 307 310 309 308 312 310 304 303 306 307 304 304 304 303
306 309 312 312 309 304 304 306 307 308 310 305 305 306 307 307 307 308 305 310 306 309 315 310 308 309 306 309 311 307 309 310 311 310 310 305 304 304 302 303 304 303 303 302
308 310 311 312 309 304 306 306 307 308 305 304 305 305 305 306 306 306 304 304 306 305 307 309 311 311 308 310 308 308 306 304 309 307 305 304 303 302 302 303 303 302 301 301
309 310 311 310 303 305 305 306 307 309 306 307 305 304 305 304 305 305 305 306 305 305 306 310 313 312 304 307 307 308 306 305 307 306 303 302 301 302 301 301 300 299 298 298
309 310 311 306 304 304 305 307 308 309 306 308 304 303 304 305 304 305 305 305 306 305 307 311 311 304 305 304 305 307 304 306 307 308 306 305 302 300 299 299 298 297 297 296
309 309 305 304 304 305 306 306 306 305 305 305 309 302 302 304 304 304 305 305 305 304 306 305 303 302 306 311 309 304 303 303 304 305 302 302 299 298 298 297 296 295 295 294
308 306 304 303 305 306 306 305 305 305 306 305 306 305 302 302 303 303 303 304 303 303 303 305 304 304 306 308 308 303 302 302 301 300 299 297 297 296 295 294 293 293 293 292
305 304 304 305 305 305 305 305 305 306 305 305 308 305 304 302 303 303 301 301 301 301 303 302 305 302 304 308 302 300 300 300 299 298 299 297 294 293 293 293 293 292 292 291
304 304 303 305 303 303 303 305 305 304 304 306 306 308 307 302 301 301 301 301 306 300 304 304 304 305 307 303 300 300 299 298 296 296 295 294 294 293 293 292 292 290 288 287
303 303 301 300 302 303 303 303 304 304 301 303 305 303 305 303 302 302 303 302 304 306 303 301 305 304 299 300 300 299 297 296 296 295 294 293 292 292 291 289 288 287 287 287
301 302 299 301 303 304 302 301 303 302 303 302 302 303 303 300 305 303 301 304 302 306 304 304 304 303 299 299 299 297 296 296 296 295 294 293 292 290 288 287 286 286 286 286
303 302 299 302 301 301 304 305 302 305 305 301 303 301 300 300 302 303 301 302 301 303 300 304 304 300 298 297 296 295 294 294 293 292 291 290 288 287 287 286 286 286 285 284
302 302 300 302 300 304 304 303 304 303 300 300 299 301 301 300 302 301 302 306 303 299 302 302 302 297 296 295 294 292 291 293 292 289 288 286 285 285 286 286 285 284 285 285
303 302 302 306 302 303 303 304 303 300 300 301 302 301 303 301 301 300 302 300 300 302 302 301 298 295 294 293 291 292 290 290 289 287 286 286 285 284 284 283 283 283 283 282
299 302 302 301 299 299 300 300 300 301 301 300 300 300 301 301 301 300 299 300 301 301 302 301 295 293 292 290 290 289 289 288 287 286 285 284 284 283 283 283 282 282 282 282
297 297 298 298 299 299 300 301 301 300 301 301 302 302 302 300 301 300 301 300 302 303 298 295 293 291 290 289 289 289 288 286 285 284 284 284 284 283 283 282 282 282 282 281
296 296 297 298 299 299 299 300 300 299 302 302 300 303 300 298 300 300 300 302 299 295 293 292 291 290 290 290 289 286 286 286 286 284 284 284 283 283 282 282 282 282 281 281
Wind_Speed
40 38 45 44 52 47 41 32 7 26 29 12 5 5 5 6 9 6 1 4 4 8 10 9 8 10 2 9 13 8 3 4 5 2 2 1 3 5 9 3 4 3 4 3
36 37 44 49 52 52 43 26 7 27 30 6 7 6 5 4 7 7 4 3 3 3 8 5 6 6 1 6 8 8 10 4 4 4 4 4 7 9 3 1 1 8 4 2
35 38 44 45 54 53 41 18 4 7 14 10 16 14 16 7 5 8 5 4 4 4 5 2 7 6 2 3 3 2 6 3 3 5 3 5 5 8 4 2 4 6 11 6
36 39 42 48 59 62 44 16 6 13 7 10 22 22 17 19 8 4 11 4 5 7 4 5 5 5 5 3 5 2 3 3 2 2 2 3 3 7 15 10 9 9 3 9
35 41 46 50 59 59 37 19 10 12 22 27 19 20 16 23 13 12 12 5 9 5 5 7 9 11 8 5 8 6 2 2 4 3 2 5 7 10 13 17 17 17 15 11
32 40 43 49 57 63 32 20 18 24 20 22 15 16 19 20 21 4 7 12 6 9 3 4 5 7 10 9 9 9 6 6 4 3 2 3 8 19 19 10 11 14 12 11
37 49 48 47 68 67 34 28 26 11 8 15 19 23 22 15 24 12 5 12 11 7 19 24 19 17 14 11 9 6 7 6 1 2 4 4 2 2 4 18 9 15 6 5
43 41 58 54 67 61 35 33 31 14 5 18 17 18 22 15 16 7 7 5 12 29 9 4 4 2 2 4 6 4 3 4 2 3 5 7 6 5 4 7 3 16 13 10
42 38 58 54 57 53 33 35 29 18 15 14 18 26 27 12 15 8 3 4 34 15 3 3 5 5 4 4 4 3 5 1 3 3 3 4 3 4 4 3 5 4 14 15
42 42 55 50 66 54 38 37 30 19 7 8 18 25 21 25 19 6 8 13 9 4 2 2 3 4 1 6 9 6 4 2 5 4 4 5 4 5 7 4 2 8 12 16
44 39 48 55 70 62 33 29 31 26 9 20 16 19 25 15 22 6 13 8 2 2 2 3 3 3 5 4 6 6 8 8 4 4 4 7 10 8 4 3 6 9 12 16
38 42 46 55 70 57 42 32 30 28 19 12 18 20 20 22 17 19 23 5 10 12 4 2 3 3 3 6 4 5 5 4 3 7 1 4 6 3 2 3 9 10 12 14
45 50 51 52 71 55 43 40 35 28 21 12 8 10 17 23 21 20 11 6 11 9 8 7 3 3 4 5 4 4 6 6 3 3 5 4 2 2 3 7 10 13 14 15
46 44 53 63 73 53 45 43 39 30 15 6 3 11 11 17 27 17 16 14 15 14 10 4 2 2 5 3 2 2 2 11 6 2 4 4 2 5 10 14 16 16 14 12
54 55 54 72 64 48 44 43 38 25 6 6 9 9 4 11 19 26 14 13 19 15 5 3 2 5 5 2 2 3 9 6 5 1 8 2 13 14 15 16 15 13 13 12
55 54 69 77 59 49 42 20 30 25 16 9 4 5 4 8 13 19 17 18 15 8 6 5 4 4 2 4 4 4 8 5 4 4 12 9 20 17 14 16 14 13 13 10
57 64 70 70 56 52 30 16 26 30 18 7 6 6 6 15 15 16 15 14 8 5 5 3 4 4 5 2 3 9 7 7 10 15 23 20 18 16 17 16 15 12 11 9
68 70 69 56 56 38 21 24 32 34 11 6 4 4 7 7 4 4 6 5 5 5 4 4 4 5 1 3 7 10 11 14 17 10 7 19 22 21 18 14 12 11 9 6
72 69 60 55 35 14 26 36 34 17 5 6 4 8 4 7 5 6 4 4 3 3 3 3 4 4 4 1 16 17 20 10 18 19 23 23 22 19 16 12 10 8 6 4
76 63 35 11 20 38 36 17 8 3 1 3 4 7 4 7 4 3 3 3 3 2 2 5 3 3 3 6 12 17 14 21 25 28 23 22 19 17 13 10 7 6 4 3
56 20 8 47 45 27 6 6 6 5 3 4 6 7 9 5 4 4 3 3 3 4 4 3 4 3 6 15 19 16 19 21 15 20 21 17 17 15 11 8 6 5 4 4
38 34 45 30 9 5 5 4 5 6 6 7 11 10 9 7 6 5 4 3 2 3 8 3 3 4 16 20 22 22 21 22 23 21 21 18 15 11 9 7 5 3 3 7
64 26 8 9 3 4 10 10 4 6 11 11 15 9 7 6 5 6 3 3 2 10 3 3 1 14 19 23 25 24 24 25 23 20 17 15 12 9 7 5 2 3 4 6
10 6 6 3 5 6 4 9 8 9 18 31 24 10 6 5 4 4 4 2 5 4 3 4 9 22 25 25 26 30 25 23 20 18 15 13 10 7 4 3 4 6 7 9
7 6 5 3 6 8 12 16 18 20 36 29 17 11 7 4 5 2 5 3 4 5 3 4 20 26 28 28 27 27 25 22 18 16 13 10 7 5 3 3 4 6 8 11
6 7 6 11 15 11 13 19 27 31 28 20 9 6 4 3 5 4 5 6 5 3 5 20 27 29 29 28 26 24 21 19 16 13 10 7 5 3 3 3 4 7 10 14
5 6 12 9 18 15 13 21 24 26 16 3 5 4 3 7 4 6 4 2 3 14 22 25 29 31 29 26 23 23 20 17 13 10 7 4 2 2 3 4 7 10 13 16
Wind_Direction
218 210 217 212 206 182 175 164 145 177 175 168 181 197 181 163 153 168 181 132 113 181 175 178 195 198 323 173 164 163 139 115 150 160 117 258 263 235 195 199 196 235 307 287
216 209 210 216 198 177 164 152 116 172 170 167 182 170 167 188 144 173 181 134 154 203 172 167 194 182 71 181 188 170 175 152 123 158 186 198 216 194 90 88 224 209 207 215
214 213 213 220 196 181 168 148 110 148 191 192 179 179 189 172 167 154 139 131 114 148 166 60 163 150 141 171 213 199 163 165 201 202 120 123 187 184 198 178 190 222 233 239
211 214 215 211 197 175 179 162 185 166 176 194 187 189 186 186 167 176 159 169 218 169 147 141 156 156 144 159 163 175 240 165 135 134 121 195 215 196 186 201 211 223 303 234
207 215 212 213 194 171 163 166 146 162 177 178 183 189 195 193 187 163 186 193 169 177 164 205 182 167 179 173 182 196 162 174 179 167 174 235 253 220 210 218 236 246 256 255
207 217 212 209 192 170 182 175 140 153 166 181 190 194 194 201 199 195 184 171 119 211 200 104 64 162 151 151 174 179 161 152 182 183 166 241 273 235 210 207 207 223 235 254
205 205 213 212 194 179 181 177 157 144 167 176 196 198 202 202 200 184 169 180 171 165 122 99 88 91 98 108 99 142 159 143 72 129 145 224 76 72 246 221 238 219 245 183
209 201 211 205 199 177 184 177 167 168 135 187 182 187 193 193 194 175 166 169 183 151 132 108 107 51 72 50 55 93 176 145 132 178 212 312 204 201 186 186 247 215 211 177
211 207 212 207 203 174 173 188 182 177 130 202 184 188 196 186 181 160 143 141 151 152 127 115 160 185 159 175 148 78 106 100 228 181 211 238 84 146 186 187 252 171 181 172
210 206 207 202 190 172 166 185 180 179 120 155 169 185 186 187 181 139 136 149 176 161 116 117 166 172 131 172 174 169 155 160 209 196 237 277 127 148 162 220 50 150 167 170
206 204 205 206 191 177 179 186 189 196 158 168 181 178 178 175 184 151 150 125 179 127 130 167 168 174 183 189 161 174 172 165 188 178 207 251 156 146 229 54 124 145 157 165
205 204 197 199 185 177 182 176 179 184 160 164 179 180 184 193 190 184 167 185 156 173 123 160 138 148 168 188 196 178 207 214 199 206 212 97 156 87 111 130 144 141 143 152
205 201 197 190 186 173 178 182 172 171 127 120 153 181 201 202 198 200 164 196 178 169 151 146 134 171 168 180 208 151 205 186 224 184 164 159 175 197 146 140 139 134 132 133
203 198 195 191 174 172 180 180 173 166 126 116 150 188 186 200 204 198 194 196 182 165 146 110 138 149 200 174 120 197 133 164 181 195 171 139 151 154 145 127 125 123 120 120
199 198 196 181 174 177 183 187 176 171 143 126 129 134 182 194 199 203 198 183 176 163 125 99 127 122 150 112 143 197 187 173 195 220 156 120 152 147 136 128 126 123 120 112
197 190 179 174 172 171 172 144 167 160 151 113 118 106 77 154 170 181 180 178 171 157 111 109 116 162 192 164 201 157 175 160 126 132 147 140 140 130 136 128 122 117 114 111
187 180 173 170 168 164 158 153 171 166 163 108 112 116 143 132 136 135 137 150 130 115 103 93 130 154 175 204 227 151 166 157 133 133 124 119 136 134 129 129 127 127 117 113
171 165 162 157 160 152 148 146 157 169 156 123 117 112 144 153 121 99 113 106 101 63 102 122 138 134 158 241 137 143 146 141 136 142 116 141 135 127 122 122 120 115 112 97
157 156 150 151 146 135 142 148 157 164 167 115 128 148 154 157 110 106 98 99 82 85 109 113 162 163 213 123 162 158 154 158 138 122 127 131 127 125 122 123 120 110 91 65
149 141 130 109 139 133 128 126 133 148 46 108 108 128 127 154 136 98 111 57 104 135 109 145 214 207 133 151 158 156 155 143 141 133 132 132 129 128 127 123 111 97 81 36
137 136 107 129 129 127 86 131 168 172 149 132 122 143 131 117 116 109 59 121 158 175 143 209 193 214 150 154 151 143 144 144 137 133 132 135 134 134 130 115 95 75 43 4
150 137 126 118 109 116 140 165 157 199 163 146 141 132 122 109 113 112 132 111 179 161 145 184 226 129 155 150 143 142 140 131 126 132 131 130 129 126 119 107 92 56 6 350
131 120 110 144 148 120 175 175 167 148 159 151 143 122 117 111 98 91 117 130 127 133 166 216 97 151 153 153 143 134 133 135 134 129 130 130 124 114 103 99 58 18 356 343
120 110 113 154 163 194 188 168 141 135 146 139 133 114 114 112 98 132 115 99 154 177 213 219 152 155 150 147 143 140 134 136 133 129 125 120 113 106 87 47 1 352 340 332
82 86 99 139 126 110 118 121 121 138 144 134 118 91 103 107 117 106 121 137 197 219 220 124 150 151 147 144 141 139 138 137 130 132 132 124 113 92 63 24 353 337 334 334
68 62 99 123 102 110 114 127 127 143 141 132 93 100 101 101 118 138 189 176 210 157 126 141 146 146 144 142 141 138 138 137 136 135 127 116 100 70 26 352 338 340 338 337
62 68 75 96 116 123 123 137 142 148 143 84 106 97 85 127 162 173 182 184 108 132 131 141 146 144 141 139 138 141 140 137 135 133 126 111 70 8 358 349 341 341 336 334